#timestamp,LO_Frequency,Hit,StdDev 
1547449215.3,286047001.2,N
1547449235.2,286047000.5,N
1547449255.0,286047000.0,N
1547449255.9,286047000.0,N
1547449275.8,286047000.2,N
1547449295.6,286047001.0,N
1547449315.4,286047000.8,N
1547449335.3,286047000.9,N
1547449355.1,286047000.9,N
1547449375.8,286046998.2,N
1547449395.7,286047000.5,N
1547449415.5,286046998.1,N
1547449435.4,286047000.8,N
1547449455.2,286047000.2,N
1547449475.0,286046998.1,N
1547449475.9,286046998.1,N
1547449495.8,286047000.8,N
1547449515.6,286046998.3,N
1547449535.5,286047001.1,N
1547449555.3,286046999.9,N
1547449575.1,286047000.4,N
1547449595.9,286047002.7,N
1547449615.7,286047002.8,N
1547449635.5,286047001.0,N
1547449655.4,286046996.5,N
1547449675.2,286046999.0,N
1547449695.0,286047001.0,N
1547449696.0,286047001.0,N
1547449715.8,286046999.4,N
1547449735.6,286046998.4,N
1547449755.5,286046999.6,N
1547449775.3,286046998.8,N
1547449795.1,286046998.5,N
1547449815.9,286046998.8,N
1547449835.7,286046998.1,N
1547449855.6,286046999.8,N
1547449875.4,286047000.6,N
1547449895.2,286046999.7,N
1547449915.1,286046999.9,N
1547449916.0,286046999.9,N
1547449935.8,286047000.7,N
1547449955.6,286047000.1,N
1547449975.5,286047002.0,N
1547449995.3,286047002.2,N
1547450015.2,286047002.2,N
1547450035.9,286047003.9,N
1547450055.7,286047001.0,N
1547450075.6,286047002.7,N
1547450095.4,286047001.4,N
1547450115.2,286047003.7,N
1547450135.1,286047002.3,N
1547450136.0,286047002.3,N
1547450155.8,286047000.7,N
1547450175.7,286046999.0,N
1547450195.5,286046996.8,N
1547450215.3,286046998.7,N
1547450235.2,286046998.6,N
1547450255.0,286046998.1,N
1547450255.9,286046998.1,N
1547450275.7,286047000.4,N
1547450295.6,286047002.0,N
1547450315.4,286047001.4,N
1547450335.3,286047001.4,N
1547450355.1,286047002.1,N
1547450356.0,286047002.1,N
1547450375.8,286047001.4,N
1547450395.7,286047004.3,N
1547450415.5,286047001.5,N
1547450435.3,286047002.1,N
1547450455.2,286047002.1,N
1547450475.0,286046999.7,N
1547450475.9,286046999.7,N
1547450495.8,286047001.1,N
1547450515.6,286047001.1,N
1547450535.4,286047002.8,N
1547450555.3,286047001.7,N
1547450575.1,286047002.4,N
1547450595.8,286047004.1,N
1547450615.7,286047002.7,N
1547450635.5,286047001.7,N
1547450655.4,286047002.3,N
1547450675.2,286047000.5,N
1547450695.0,286047000.6,N
1547450695.9,286047000.6,N
1547450715.8,286047001.8,N
1547450735.6,286046999.8,N
1547450755.5,286046998.5,N
1547450775.3,286047000.9,N
1547450795.1,286047000.7,N
1547450815.9,286046998.9,N
1547450835.7,286046999.7,N
1547450855.5,286047000.1,N
1547450875.4,286047002.0,N
1547450895.2,286047004.3,Y
1547450915.1,286047002.4,P
1547450916.0,286047002.4,P
1547450935.8,286047000.2,N
1547450955.6,286046998.5,N
1547450975.5,286046998.6,N
1547450995.3,286046998.3,N
1547451015.2,286046996.8,N
1547451035.9,286046999.0,N
1547451055.7,286046999.6,N
1547451075.6,286046999.4,N
1547451095.4,286046998.1,N
1547451115.2,286047000.5,N
1547451135.1,286046999.1,N
1547451136.0,286046999.1,N
1547451155.8,286046998.7,N
1547451175.7,286046998.9,N
1547451195.5,286046998.1,N
1547451215.3,286047001.2,N
1547451235.2,286046998.9,N
1547451255.0,286046998.4,N
1547451255.9,286046998.4,N
1547451275.8,286046998.6,N
1547451295.6,286047001.0,N
1547451315.4,286046998.5,N
1547451335.3,286047001.2,N
1547451355.1,286046998.4,N
1547451375.9,286046998.4,N
1547451395.7,286046998.7,N
1547451415.5,286046998.3,N
1547451435.4,286046998.9,N
1547451455.2,286046998.8,N
1547451475.0,286046999.0,N
1547451475.9,286046999.0,N
1547451495.8,286046999.6,N
1547451515.6,286046998.5,N
1547451535.5,286046999.3,N
1547451555.3,286046998.1,N
1547451575.1,286046998.3,N
1547451595.9,286046999.9,N
1547451615.7,286047001.2,N
1547451635.6,286046998.2,N
1547451655.4,286046999.9,N
1547451675.2,286046999.7,N
1547451695.1,286047002.7,N
1547451696.0,286047002.7,N
1547451715.8,286047002.6,N
1547451735.7,286047001.7,N
1547451755.5,286047001.6,N
1547451775.3,286047003.9,N
1547451795.2,286047003.0,N
1547451815.0,286047005.0,N
1547451815.9,286047005.0,N
1547451835.7,286047007.5,Y
1547451855.6,286047005.7,P
1547451875.4,286047005.6,N
1547451895.3,286047003.3,N
1547451915.1,286047002.9,N
1547451916.0,286047002.9,N
1547451935.8,286047004.4,N
1547451955.7,286047001.8,N
1547451975.5,286047001.9,N
1547451995.4,286047000.5,N
1547452015.2,286047000.1,N
1547452035.0,286046999.9,N
1547452035.9,286046999.9,N
1547452055.8,286047000.0,N
1547452075.6,286047000.4,N
1547452095.5,286046999.8,N
1547452115.3,286046999.9,N
1547452135.1,286046998.7,N
1547452155.9,286047000.8,N
1547452175.7,286046997.0,N
1547452195.6,286046999.2,N
1547452215.4,286046998.4,N
1547452235.2,286046999.0,N
1547452255.1,286046999.5,N
1547452256.0,286046999.5,N
1547452275.8,286046996.6,N
1547452295.6,286046996.8,N
1547452315.5,286046999.4,N
1547452335.3,286046996.6,N
1547452355.2,286046997.8,N
1547452375.9,286046995.3,N
1547452395.7,286046997.5,N
1547452415.6,286046998.8,N
1547452435.4,286046999.6,N
1547452455.2,286046996.6,N
1547452475.1,286046996.6,N
1547452476.0,286046996.6,N
1547452495.8,286046997.2,N
1547452515.7,286046996.9,N
1547452535.5,286046997.1,N
1547452555.3,286046996.9,N
1547452575.2,286046997.9,N
1547452595.0,286046995.6,Y
1547452595.9,286046995.6,P
1547452615.8,286046997.2,N
1547452635.6,286046997.5,N
1547452655.4,286046997.5,N
1547452675.3,286046993.4,Y
1547452695.1,286046997.6,P
1547452715.9,286046996.5,P
1547452735.7,286046997.5,P
1547452755.5,286046997.7,Y
1547452775.4,286047000.6,P
1547452795.2,286047000.5,N
